SCP
-0 -0 -0 -0 -0 -0 -0 -0 -0 0 0 0 -0 -0 0 -0 -0 0 0 0 0 -0 -0 -0 -0 -0 0 0 -0 -0 0 0 0 0 0 0 0 0 0 -0 -0 -0 -0 -0 -0 -0 -0
-0 -0 -0 -0 -0 -0 -0 -0 -0 -0 0 -0 -0 -0 -0 -0 -0 0 0 0 -0 -0 -0 -0 -0 -0 0 0 0 0 0 0 0 0 0 0 0 0 0 0 0 0 -0 -0 0 0 -0
0 0 -0 -0 -0 -0 -0 -0 -0 -0 -0 0 -0 -0 -0 -0 -0 -0 -0 -0 -0 -0 -0 -0 -0 -0 0 0 0 0 0 0 0 0 0 0 0 0 0 0 0 0 0 0 0 0 0
0 0 -0 -0 -0 -0 -0 -0 -0 -0 -0 0 -0 -0 -0 -0 -0 0 0 -0 -0 -0 -0 -0 -0 0 0 0 0 0 0 0 0 0 0 0 0 0 0 0 0 0 0 0 0 0 0
0 0 -0 0 -0 -0 -0 -0 -0 -0 -0 -0 -0 -0 -0 -0 -0 0 0 0 0 0 0 -0 0 0 0 0 0 0 0 0 0 0 0 0 0 0 0 0 0 0 0 0 0 0 -0
0 0 0 0 0 0 -0 -0 -0 -0 -0 -0 0 -0 -0 -0 -0 0 0 0 0 0 0 0 0 0 0 0 0 0 0 0 0 0 0 0 0 0 0 0 0 0 -0 0 0 0 0
0 0 -0 -0 -0 -0 0 -0 -0 -0 -0 -0 -0 -0 -0 -0 0 0 0 0 0 0 0 0 0 0 0 0 0 0 0 0 0 0 0 0 0 0 0 0 0 0 -0 0 -0 0 -0
0 -0 -0 -0 -0 -0 -0 -0 -0 -0 -0 -0 -0 -0 -0 -0 0 0 0 0 0 0 0 0 0 0 0 0 0 0 0 0 0 0 0 0 0 0 0 0 0 0 -0 -0 0 0 0
-0 -0 0 0 0 0 0 -0 -0 -0 -0 -0 -0 -0 -0 0 0 0 0 0 0 0 0 0 0 0 0 0 0 0 0 0 0 0 0 0 0 0 0 0 0 0 0 0 0 0 0
0 0 0 0 0 0 0 -0 -0 -0 -0 -0 -0 0 0 0 0 0 0 0 0 0 0 0 0 0 0 0 0 0 0 0 0 0 0 0 0 0 0 0 0 0 0 0 0 0 0
0 0 0 0 0 0 0 0 0 0 -0 -0 0 0 0 0 0 0 0 0 0 0 0 0 0 0 0 0 0 0 0 0 0 0 0 0 0 0 0 0 0 0 0 0 0 0 0
0 0 0 0 0 0 0 0 0 0 0 -0 0 0 0 0 0 0 0 0 0 0 0 0 0 0 0 0 0 0 0 0 0 0 0 0 0 0 0 0 0 0 0 -0 0 0 0
0 0 0 -0 -0 -0 0 0 0 0 0 0 0 0 0 0 0 0 0 0 0 0 0 0 0 0 0 0 0 0 0 0 0 0 -0 0 0 0 0 -0 0 0 0 0 0 0 0
0 0 0 0 0 0 0 0 0 0 0 0 0 -0 0 0 0 0 0 0 0 0 0 0 0 0 0 0 0 0 0 0 0 0 0 0 0 0 0 -0 0 -0 0 0 0 0 0
0 0 0 0 0 0 0 0 0 0 0 0 0 0 0 0 0 0 0 0 0 0 0 0 0 0 0 0 0 0 0 0 0 0 0 0 0 0 0 0 0 0 0 0 0 0 0
0 0 0 0 0 0 0 0 0 0 0 0 0 0 0 0 0 0 0 0 0 0 0 0 0 0 0 0 0 0 0 0 0 0 0 0 0 0 0 0 0 0 0 0 0 0 0
0 0 0 0 0 0 0 0 0 0 0 0 0 0 0 0 0 0 0 0 0 0 0 0 0 0 0 0 0 0 0 0 0 0 0 0 0 0 0 0 0 0 0 0 0 0 0
0 0 0 0 0 0 0 0 0 0 0 0 0 0 0 0 0 0 0 0 0 0 0 0 0 0 0 0 0 0 0 0 0 0 0 0 0 0 0 0 0 0 0 0 0 0 0
0 0 0 0 0 0 0 0 0 0 0 0 0 0 0 0 0 0 0 0 0 0 0 0 0 0 0 0 0 0 0 0 0 0 0 0 0 0 0 0 0 0 -0 0 0 0 0
0 0 0 0 0 0 0 0 0 0 0 0 0 0 0 0 0 0 0 0 0 0 0 0 0 0 0 0 0 0 0 0 0 0 0 0 0 0 0 0 -0 0 -0 -0 -0 0 0
0 0 0 0 0 0 0 0 0 0 0 0 0 0 0 0 0 0 0 0 0 0 0 0 0 0 0 0 0 0 0 0 0 0 0 0 0 0 0 0 -0 0 -0 0 -0 0 0
0 0 0 0 0 0 0 0 0 0 0 0 0 0 0 0 0 0 0 0 0 0 0 0 0 0 0 0 0 0 0 0 0 0 0 0 0 0 0 0 0 0 -0 -0 -0 0 0
0 0 0 0 0 0 0 0 0 0 0 0 0 0 0 0 0 0 0 0 0 0 0 0 0 0 0 0 0 0 0 0 0 0 0 0 0 0 0 0 -0 0 -0 -0 -0 0 0
0 0 0 0 0 0 0 0 0 0 0 0 0 0 0 0 0 0 0 0 0 0 0 0 0 0 0 0 0 0 0 0 0 0 0 0 0 0 0 0 0 0 0 -0 -0 0 -0
0 0 0 0 0 0 0 0 0 0 0 0 0 0 0 0 0 0 0 0 0 0 0 0 0 0 0 0 0 0 0 0 0 0 0 0 0 0 0 0 0 0 -0 0 -0 0 0
0 0 0 0 0 0 0 0 0 0 0 0 0 0 0 0 0 0 0 0 0 0 0 0 0 0 0 0 0 0 0 0 0 0 0 0 0 0 0 0 0 0 -0 -0 0 0 0
0 0 0 0 0 0 0 0 0 0 0 0 0 0 0 0 0 0 0 0 0 0 0 0 0 0 0 0 0 0 0 0 0 0 0 0 0 0 0 0 0 0 -0 -0 -0 0 -0
0 0 0 0 0 0 0 0 0 0 0 0 0 0 0 0 0 0 0 0 0 0 0 0 0 0 0 0 0 0 0 0 0 0 0 0 0 0 0 0 0 0 -0 -0 -0 -0 0
0 0 0 0 0 0 0 0 0 0 0 0 0 0 0 0 0 0 0 0 0 0 0 0 0 0 0 0 0 0 0 0 0 0 0 0 0 0 0 0 0 0 0 0 -0 -0 -0
Wind_Speed_500mb
58 60 62 63 65 67 68 70 71 71 65 44 30 28 27 28 27 26 28 23 20 18 22 23 19 24 31 24 12 10 14 16 18 21 24 23 12 6 14 6 8 12 7 11 28 42 52
57 59 61 62 64 67 69 72 73 73 68 48 27 26 19 21 24 26 25 19 15 14 12 15 19 21 18 15 16 12 17 18 16 20 21 22 11 13 7 12 6 8 27 41 36 47 27
55 57 59 62 64 67 69 72 76 78 71 50 28 29 16 18 22 26 24 17 13 15 10 6 10 12 14 16 26 30 24 21 21 23 28 23 20 9 12 14 4 20 27 30 23 5 10
53 56 58 60 63 66 69 73 77 82 76 49 33 34 20 18 21 26 24 13 11 10 10 12 15 3 5 35 34 35 26 24 19 20 22 21 15 15 10 8 12 17 8 14 5 22 20
51 55 58 61 63 65 68 72 77 81 78 47 35 35 22 19 23 27 25 12 5 12 8 12 28 8 11 37 37 25 23 25 26 29 26 21 11 6 5 15 17 4 22 40 32 9 17
50 52 55 58 62 66 68 70 74 79 78 46 39 37 23 18 22 29 29 12 3 15 15 7 40 4 26 34 32 28 25 22 22 25 15 1 1 6 3 13 18 33 40 39 40 16 37
49 51 54 57 60 63 67 70 71 74 75 47 43 35 22 19 21 26 30 15 9 5 18 15 8 11 25 31 18 37 27 24 15 7 10 4 12 21 23 17 26 28 32 41 50 48 42
49 51 54 56 59 62 64 68 69 70 71 48 36 33 32 15 19 25 25 13 11 6 8 8 15 16 29 43 12 32 31 10 6 18 7 10 22 11 18 17 25 29 35 42 34 25 35
50 52 54 57 59 61 64 66 68 68 67 59 27 32 35 32 16 22 12 18 11 13 4 6 8 12 26 36 8 29 33 13 8 10 19 19 23 18 15 31 23 23 24 31 45 48 41
50 52 54 56 59 61 63 64 66 66 66 64 40 23 38 39 14 23 8 26 21 7 2 12 8 8 22 31 6 27 28 6 5 12 16 11 4 14 21 22 12 25 10 35 49 38 22
48 51 54 56 58 61 63 64 65 65 63 60 45 25 31 33 25 25 27 22 4 13 2 20 7 9 30 26 21 22 32 5 10 17 6 12 25 18 18 9 6 19 34 44 48 39 29
49 52 55 58 60 62 64 67 67 66 64 58 47 22 35 36 32 33 27 6 15 2 2 9 7 18 21 13 22 22 15 16 4 8 7 28 22 10 7 17 26 36 32 45 5 2 8
49 53 57 60 62 65 67 68 68 67 65 60 52 29 26 37 42 35 20 11 1 5 4 13 14 16 16 25 15 21 11 15 17 17 33 26 8 7 5 30 14 23 25 10 6 6 13
50 52 55 58 61 64 67 68 68 67 67 64 56 42 15 35 39 28 10 2 5 3 6 6 11 13 9 24 13 23 17 13 6 6 17 16 10 5 7 16 19 30 9 3 14 18 34
50 53 56 59 61 63 63 65 68 70 70 69 60 33 11 37 25 26 3 7 3 2 6 11 16 7 8 16 9 15 11 7 5 6 17 12 11 13 26 28 9 10 21 24 11 13 13
50 53 56 58 60 62 64 65 69 70 69 68 60 29 14 34 18 15 9 4 2 3 9 1 5 2 11 19 20 23 8 3 8 3 3 3 15 13 26 13 8 13 21 7 4 13 15
51 54 55 57 58 59 61 64 67 72 71 62 47 18 17 32 9 16 7 0 5 6 10 5 4 9 9 10 24 11 7 11 3 11 5 7 7 20 24 7 26 9 9 7 8 7 9
51 53 55 56 54 54 56 59 64 68 71 60 27 10 25 26 12 6 4 6 9 11 14 6 6 6 6 14 14 12 9 6 6 2 22 3 7 15 33 26 3 8 13 17 7 13 8
58 55 55 52 49 51 55 58 61 64 65 56 38 12 16 17 6 5 7 3 4 15 9 8 7 5 10 13 11 14 12 6 16 20 9 2 4 16 16 9 20 37 25 19 26 10 8
56 50 52 45 46 50 53 56 56 55 53 40 17 8 13 22 15 4 6 6 9 18 8 16 7 3 24 19 7 16 23 12 37 40 27 8 7 12 12 27 35 25 35 25 23 6 20
53 52 48 49 52 54 54 54 48 41 41 25 15 7 9 7 9 9 1 4 9 14 8 12 2 7 20 11 27 8 5 27 29 12 6 5 16 26 32 36 35 28 20 28 25 15 10
48 50 51 52 54 52 49 46 42 29 29 18 12 11 13 7 10 8 5 6 6 11 6 5 11 26 22 14 19 37 25 29 18 9 5 3 13 21 36 20 19 3 22 32 19 11 20
50 51 52 51 50 47 43 38 35 25 18 14 17 18 9 5 8 6 4 11 8 21 9 20 25 25 23 19 25 54 59 56 42 23 18 12 7 12 13 28 24 11 21 30 23 6 23
49 48 48 46 45 41 36 31 25 20 11 6 5 14 8 6 6 6 16 25 15 17 20 24 27 11 20 52 58 27 18 22 26 29 34 10 11 4 15 21 3 5 16 21 22 5 22
46 44 43 40 39 37 33 28 21 14 6 4 8 8 6 8 11 23 2 13 23 18 11 17 16 28 41 23 10 11 3 3 3 2 16 28 7 9 7 11 19 6 23 18 13 7 32
43 40 39 37 35 33 31 26 21 16 16 11 11 13 11 9 7 10 22 21 11 12 8 10 35 34 19 5 5 8 5 7 7 9 10 9 17 7 9 9 6 4 24 32 10 6 36
37 35 35 35 34 33 30 27 22 17 16 14 13 16 18 11 24 14 11 9 16 7 8 9 20 15 15 7 5 5 5 7 6 9 5 12 9 15 11 10 9 7 25 30 9 17 41
37 35 34 33 32 32 29 29 26 19 16 23 17 17 22 22 48 50 46 41 28 15 9 15 18 3 6 6 5 4 4 4 8 9 15 8 8 6 4 7 9 5 11 14 19 30 34
36 34 33 33 32 30 28 27 26 23 18 21 21 21 23 36 36 45 58 66 59 54 44 17 11 8 8 4 2 1 6 6 7 8 4 7 10 8 8 8 14 25 19 20 23 26 30
Wind_Direction_500mb
41 40 38 35 33 30 26 23 20 18 17 18 27 30 38 49 49 38 35 44 52 59 68 72 72 68 66 64 89 37 21 15 5 4 6 3 16 33 354 305 293 251 254 267 277 281 276
37 36 34 33 30 28 25 23 19 16 13 14 22 25 35 36 35 27 27 39 56 64 76 68 62 59 56 64 17 1 347 342 332 334 341 354 335 324 274 294 277 285 284 289 281 275 271
35 33 31 29 27 25 23 21 18 14 12 13 23 20 39 29 27 22 22 32 62 63 72 73 33 23 38 20 6 349 325 324 320 311 312 319 321 286 310 295 274 285 295 308 283 296 257
30 29 26 26 24 23 21 19 17 14 12 17 25 21 39 36 26 18 15 28 67 60 63 70 22 358 37 356 347 341 327 318 313 313 319 310 308 271 254 290 280 296 289 325 356 287 306
26 24 22 21 20 19 20 19 17 15 12 19 22 21 37 35 24 15 11 17 64 36 18 48 17 124 31 356 350 357 347 322 301 297 305 308 292 261 290 318 310 10 308 314 315 297 290
21 20 19 18 16 15 16 18 17 15 13 19 15 18 34 37 21 16 8 12 87 33 30 39 27 30 358 349 23 20 357 334 301 295 313 351 249 263 260 326 318 307 305 302 294 286 287
16 15 15 14 14 13 12 14 17 16 15 16 13 18 26 36 23 18 20 10 355 26 46 82 45 42 325 347 2 22 356 321 302 327 310 333 286 300 312 311 290 294 292 292 292 296 291
12 10 10 11 9 10 11 10 13 16 14 14 20 23 17 343 4 8 13 44 36 340 309 24 20 13 353 348 320 3 356 307 331 306 289 286 295 345 315 297 296 287 287 287 291 293 300
7 6 7 6 7 7 7 8 8 11 13 11 11 20 14 5 334 346 340 9 349 330 294 335 311 350 351 336 317 349 350 326 294 301 318 292 291 319 326 307 299 290 273 286 295 307 288
3 3 4 4 4 4 4 5 6 6 9 7 360 341 357 358 360 340 353 323 306 279 1 349 352 8 350 346 350 351 351 310 310 312 322 307 291 311 316 294 265 307 311 299 297 308 306
0 0 0 1 2 1 0 1 2 2 3 8 4 8 353 358 2 356 335 333 147 151 293 331 319 333 351 23 315 342 344 335 294 307 312 304 301 308 297 263 262 279 311 292 292 290 301
357 357 357 358 358 358 357 356 358 357 356 360 4 345 2 3 356 354 345 113 129 217 345 340 323 343 351 345 344 332 348 5 290 302 262 289 289 266 265 298 290 294 303 303 11 288 256
355 355 354 354 354 353 353 353 354 355 353 354 355 332 335 352 350 345 347 163 297 64 351 340 330 342 343 338 332 349 341 17 28 352 348 319 301 271 276 317 322 320 354 314 313 263 299
349 349 349 349 350 350 351 352 352 354 355 354 355 347 306 342 340 342 351 106 42 2 315 322 331 327 341 358 339 340 346 13 65 6 319 342 331 342 30 336 303 322 338 301 307 311 303
342 343 344 345 347 349 351 351 348 349 350 349 353 354 9 353 351 343 334 56 70 288 299 318 321 353 341 344 329 340 339 318 347 13 2 325 278 297 309 312 280 10 327 324 267 251 277
336 337 339 341 343 344 344 345 344 344 345 345 348 343 358 357 346 355 72 106 281 269 319 333 306 326 323 342 340 340 316 336 332 328 304 298 290 321 329 316 151 302 317 289 261 308 311
329 331 333 335 337 339 340 342 343 342 342 347 348 332 342 353 3 61 85 278 295 354 354 298 273 292 271 331 328 312 283 305 266 337 274 279 233 306 313 334 332 354 322 302 258 255 284
323 324 324 327 331 334 338 342 343 344 342 347 350 317 338 355 47 34 67 328 338 342 358 349 304 267 324 336 315 293 252 288 235 316 316 242 290 294 308 319 104 341 318 311 286 317 296
326 324 323 325 328 332 335 339 343 344 347 345 333 302 6 5 66 33 338 16 352 359 333 20 298 6 23 330 311 256 265 261 318 336 296 179 254 310 337 190 311 332 324 313 325 304 291
318 325 325 332 331 331 332 333 339 341 349 349 342 337 17 57 63 35 7 23 354 341 318 344 280 94 355 316 263 283 288 303 328 311 277 211 258 260 282 282 300 306 316 326 336 299 315
315 319 320 326 327 329 330 331 340 345 357 1 4 36 5 349 18 3 313 16 358 10 330 321 232 24 344 290 305 248 274 314 318 328 125 232 278 294 283 287 294 304 333 336 326 2 330
309 310 317 318 321 325 328 332 339 353 9 40 20 1 347 321 319 318 350 21 7 336 285 304 307 319 311 261 260 290 302 306 287 312 322 241 280 307 306 299 325 220 344 346 351 348 336
304 306 309 313 317 321 325 328 334 349 23 62 19 349 344 347 348 320 29 10 323 342 271 259 307 315 306 300 281 282 280 271 253 269 296 283 276 320 291 318 312 211 346 337 323 39 344
302 304 307 312 316 320 323 326 328 338 11 47 10 346 328 303 317 311 307 312 307 306 287 290 300 268 303 307 303 285 253 246 240 246 227 266 291 286 293 329 271 11 333 329 319 305 358
300 302 305 309 312 316 320 319 319 307 277 291 282 302 308 291 266 297 161 298 312 312 270 279 298 305 309 315 320 331 355 193 95 150 205 218 278 294 288 311 288 332 343 345 332 285 13
298 300 302 305 309 313 317 318 311 299 291 240 249 260 281 286 242 226 311 298 312 331 300 258 316 332 339 320 341 352 334 329 322 339 139 179 242 254 296 301 284 33 339 339 287 250 4
296 297 299 302 305 309 312 314 312 296 264 247 258 260 256 268 276 278 232 296 305 290 272 294 341 313 357 356 4 353 312 325 304 302 327 298 275 254 277 264 273 319 332 322 330 333 339
295 296 294 295 299 303 308 309 308 302 265 249 246 239 253 253 268 273 268 269 264 260 264 316 329 223 298 4 340 4 264 328 288 280 291 284 304 280 256 258 282 31 340 359 314 308 328
292 291 288 289 294 297 302 304 303 303 291 259 252 261 252 258 263 273 278 275 264 260 270 262 242 315 291 280 228 285 260 247 273 287 196 260 230 293 264 270 313 297 277 297 290 290 317
Wind_Speed_850mb
58 60 62 63 65 67 68 70 71 71 65 44 30 28 27 28 27 26 28 23 20 18 22 23 19 24 31 24 12 10 14 16 18 21 24 23 12 6 14 6 8 12 7 11 28 42 52
57 59 61 62 64 67 69 72 73 73 68 48 27 26 19 21 24 26 25 19 15 14 12 15 19 21 18 15 16 12 17 18 16 20 21 22 11 13 7 12 6 8 27 41 36 47 27
55 57 59 62 64 67 69 72 76 78 71 50 28 29 16 18 22 26 24 17 13 15 10 6 10 12 14 16 26 30 24 21 21 23 28 23 20 9 12 14 4 20 27 30 23 5 10
53 56 58 60 63 66 69 73 77 82 76 49 33 34 20 18 21 26 24 13 11 10 10 12 15 3 5 35 34 35 26 24 19 20 22 21 15 15 10 8 12 17 8 14 5 22 20
51 55 58 61 63 65 68 72 77 81 78 47 35 35 22 19 23 27 25 12 5 12 8 12 28 8 11 37 37 25 23 25 26 29 26 21 11 6 5 15 17 4 22 40 32 9 17
50 52 55 58 62 66 68 70 74 79 78 46 39 37 23 18 22 29 29 12 3 15 15 7 40 4 26 34 32 28 25 22 22 25 15 1 1 6 3 13 18 33 40 39 40 16 37
49 51 54 57 60 63 67 70 71 74 75 47 43 35 22 19 21 26 30 15 9 5 18 15 8 11 25 31 18 37 27 24 15 7 10 4 12 21 23 17 26 28 32 41 50 48 42
49 51 54 56 59 62 64 68 69 70 71 48 36 33 32 15 19 25 25 13 11 6 8 8 15 16 29 43 12 32 31 10 6 18 7 10 22 11 18 17 25 29 35 42 34 25 35
50 52 54 57 59 61 64 66 68 68 67 59 27 32 35 32 16 22 12 18 11 13 4 6 8 12 26 36 8 29 33 13 8 10 19 19 23 18 15 31 23 23 24 31 45 48 41
50 52 54 56 59 61 63 64 66 66 66 64 40 23 38 39 14 23 8 26 21 7 2 12 8 8 22 31 6 27 28 6 5 12 16 11 4 14 21 22 12 25 10 35 49 38 22
48 51 54 56 58 61 63 64 65 65 63 60 45 25 31 33 25 25 27 22 4 13 2 20 7 9 30 26 21 22 32 5 10 17 6 12 25 18 18 9 6 19 34 44 48 39 29
49 52 55 58 60 62 64 67 67 66 64 58 47 22 35 36 32 33 27 6 15 2 2 9 7 18 21 13 22 22 15 16 4 8 7 28 22 10 7 17 26 36 32 45 5 2 8
49 53 57 60 62 65 67 68 68 67 65 60 52 29 26 37 42 35 20 11 1 5 4 13 14 16 16 25 15 21 11 15 17 17 33 26 8 7 5 30 14 23 25 10 6 6 13
50 52 55 58 61 64 67 68 68 67 67 64 56 42 15 35 39 28 10 2 5 3 6 6 11 13 9 24 13 23 17 13 6 6 17 16 10 5 7 16 19 30 9 3 14 18 34
50 53 56 59 61 63 63 65 68 70 70 69 60 33 11 37 25 26 3 7 3 2 6 11 16 7 8 16 9 15 11 7 5 6 17 12 11 13 26 28 9 10 21 24 11 13 13
50 53 56 58 60 62 64 65 69 70 69 68 60 29 14 34 18 15 9 4 2 3 9 1 5 2 11 19 20 23 8 3 8 3 3 3 15 13 26 13 8 13 21 7 4 13 15
51 54 55 57 58 59 61 64 67 72 71 62 47 18 17 32 9 16 7 0 5 6 10 5 4 9 9 10 24 11 7 11 3 11 5 7 7 20 24 7 26 9 9 7 8 7 9
51 53 55 56 54 54 56 59 64 68 71 60 27 10 25 26 12 6 4 6 9 11 14 6 6 6 6 14 14 12 9 6 6 2 22 3 7 15 33 26 3 8 13 17 7 13 8
58 55 55 52 49 51 55 58 61 64 65 56 38 12 16 17 6 5 7 3 4 15 9 8 7 5 10 13 11 14 12 6 16 20 9 2 4 16 16 9 20 37 25 19 26 10 8
56 50 52 45 46 50 53 56 56 55 53 40 17 8 13 22 15 4 6 6 9 18 8 16 7 3 24 19 7 16 23 12 37 40 27 8 7 12 12 27 35 25 35 25 23 6 20
53 52 48 49 52 54 54 54 48 41 41 25 15 7 9 7 9 9 1 4 9 14 8 12 2 7 20 11 27 8 5 27 29 12 6 5 16 26 32 36 35 28 20 28 25 15 10
48 50 51 52 54 52 49 46 42 29 29 18 12 11 13 7 10 8 5 6 6 11 6 5 11 26 22 14 19 37 25 29 18 9 5 3 13 21 36 20 19 3 22 32 19 11 20
50 51 52 51 50 47 43 38 35 25 18 14 17 18 9 5 8 6 4 11 8 21 9 20 25 25 23 19 25 54 59 56 42 23 18 12 7 12 13 28 24 11 21 30 23 6 23
49 48 48 46 45 41 36 31 25 20 11 6 5 14 8 6 6 6 16 25 15 17 20 24 27 11 20 52 58 27 18 22 26 29 34 10 11 4 15 21 3 5 16 21 22 5 22
46 44 43 40 39 37 33 28 21 14 6 4 8 8 6 8 11 23 2 13 23 18 11 17 16 28 41 23 10 11 3 3 3 2 16 28 7 9 7 11 19 6 23 18 13 7 32
43 40 39 37 35 33 31 26 21 16 16 11 11 13 11 9 7 10 22 21 11 12 8 10 35 34 19 5 5 8 5 7 7 9 10 9 17 7 9 9 6 4 24 32 10 6 36
37 35 35 35 34 33 30 27 22 17 16 14 13 16 18 11 24 14 11 9 16 7 8 9 20 15 15 7 5 5 5 7 6 9 5 12 9 15 11 10 9 7 25 30 9 17 41
37 35 34 33 32 32 29 29 26 19 16 23 17 17 22 22 48 50 46 41 28 15 9 15 18 3 6 6 5 4 4 4 8 9 15 8 8 6 4 7 9 5 11 14 19 30 34
36 34 33 33 32 30 28 27 26 23 18 21 21 21 23 36 36 45 58 66 59 54 44 17 11 8 8 4 2 1 6 6 7 8 4 7 10 8 8 8 14 25 19 20 23 26 30
Wind_Direction_850mb
41 40 38 35 33 30 26 23 20 18 17 18 27 30 38 49 49 38 35 44 52 59 68 72 72 68 66 64 89 37 21 15 5 4 6 3 16 33 354 305 293 251 254 267 277 281 276
37 36 34 33 30 28 25 23 19 16 13 14 22 25 35 36 35 27 27 39 56 64 76 68 62 59 56 64 17 1 347 342 332 334 341 354 335 324 274 294 277 285 284 289 281 275 271
35 33 31 29 27 25 23 21 18 14 12 13 23 20 39 29 27 22 22 32 62 63 72 73 33 23 38 20 6 349 325 324 320 311 312 319 321 286 310 295 274 285 295 308 283 296 257
30 29 26 26 24 23 21 19 17 14 12 17 25 21 39 36 26 18 15 28 67 60 63 70 22 358 37 356 347 341 327 318 313 313 319 310 308 271 254 290 280 296 289 325 356 287 306
26 24 22 21 20 19 20 19 17 15 12 19 22 21 37 35 24 15 11 17 64 36 18 48 17 124 31 356 350 357 347 322 301 297 305 308 292 261 290 318 310 10 308 314 315 297 290
21 20 19 18 16 15 16 18 17 15 13 19 15 18 34 37 21 16 8 12 87 33 30 39 27 30 358 349 23 20 357 334 301 295 313 351 249 263 260 326 318 307 305 302 294 286 287
16 15 15 14 14 13 12 14 17 16 15 16 13 18 26 36 23 18 20 10 355 26 46 82 45 42 325 347 2 22 356 321 302 327 310 333 286 300 312 311 290 294 292 292 292 296 291
12 10 10 11 9 10 11 10 13 16 14 14 20 23 17 343 4 8 13 44 36 340 309 24 20 13 353 348 320 3 356 307 331 306 289 286 295 345 315 297 296 287 287 287 291 293 300
7 6 7 6 7 7 7 8 8 11 13 11 11 20 14 5 334 346 340 9 349 330 294 335 311 350 351 336 317 349 350 326 294 301 318 292 291 319 326 307 299 290 273 286 295 307 288
3 3 4 4 4 4 4 5 6 6 9 7 360 341 357 358 360 340 353 323 306 279 1 349 352 8 350 346 350 351 351 310 310 312 322 307 291 311 316 294 265 307 311 299 297 308 306
0 0 0 1 2 1 0 1 2 2 3 8 4 8 353 358 2 356 335 333 147 151 293 331 319 333 351 23 315 342 344 335 294 307 312 304 301 308 297 263 262 279 311 292 292 290 301
357 357 357 358 358 358 357 356 358 357 356 360 4 345 2 3 356 354 345 113 129 217 345 340 323 343 351 345 344 332 348 5 290 302 262 289 289 266 265 298 290 294 303 303 11 288 256
355 355 354 354 354 353 353 353 354 355 353 354 355 332 335 352 350 345 347 163 297 64 351 340 330 342 343 338 332 349 341 17 28 352 348 319 301 271 276 317 322 320 354 314 313 263 299
349 349 349 349 350 350 351 352 352 354 355 354 355 347 306 342 340 342 351 106 42 2 315 322 331 327 341 358 339 340 346 13 65 6 319 342 331 342 30 336 303 322 338 301 307 311 303
342 343 344 345 347 349 351 351 348 349 350 349 353 354 9 353 351 343 334 56 70 288 299 318 321 353 341 344 329 340 339 318 347 13 2 325 278 297 309 312 280 10 327 324 267 251 277
336 337 339 341 343 344 344 345 344 344 345 345 348 343 358 357 346 355 72 106 281 269 319 333 306 326 323 342 340 340 316 336 332 328 304 298 290 321 329 316 151 302 317 289 261 308 311
329 331 333 335 337 339 340 342 343 342 342 347 348 332 342 353 3 61 85 278 295 354 354 298 273 292 271 331 328 312 283 305 266 337 274 279 233 306 313 334 332 354 322 302 258 255 284
323 324 324 327 331 334 338 342 343 344 342 347 350 317 338 355 47 34 67 328 338 342 358 349 304 267 324 336 315 293 252 288 235 316 316 242 290 294 308 319 104 341 318 311 286 317 296
326 324 323 325 328 332 335 339 343 344 347 345 333 302 6 5 66 33 338 16 352 359 333 20 298 6 23 330 311 256 265 261 318 336 296 179 254 310 337 190 311 332 324 313 325 304 291
318 325 325 332 331 331 332 333 339 341 349 349 342 337 17 57 63 35 7 23 354 341 318 344 280 94 355 316 263 283 288 303 328 311 277 211 258 260 282 282 300 306 316 326 336 299 315
315 319 320 326 327 329 330 331 340 345 357 1 4 36 5 349 18 3 313 16 358 10 330 321 232 24 344 290 305 248 274 314 318 328 125 232 278 294 283 287 294 304 333 336 326 2 330
309 310 317 318 321 325 328 332 339 353 9 40 20 1 347 321 319 318 350 21 7 336 285 304 307 319 311 261 260 290 302 306 287 312 322 241 280 307 306 299 325 220 344 346 351 348 336
304 306 309 313 317 321 325 328 334 349 23 62 19 349 344 347 348 320 29 10 323 342 271 259 307 315 306 300 281 282 280 271 253 269 296 283 276 320 291 318 312 211 346 337 323 39 344
302 304 307 312 316 320 323 326 328 338 11 47 10 346 328 303 317 311 307 312 307 306 287 290 300 268 303 307 303 285 253 246 240 246 227 266 291 286 293 329 271 11 333 329 319 305 358
300 302 305 309 312 316 320 319 319 307 277 291 282 302 308 291 266 297 161 298 312 312 270 279 298 305 309 315 320 331 355 193 95 150 205 218 278 294 288 311 288 332 343 345 332 285 13
298 300 302 305 309 313 317 318 311 299 291 240 249 260 281 286 242 226 311 298 312 331 300 258 316 332 339 320 341 352 334 329 322 339 139 179 242 254 296 301 284 33 339 339 287 250 4
296 297 299 302 305 309 312 314 312 296 264 247 258 260 256 268 276 278 232 296 305 290 272 294 341 313 357 356 4 353 312 325 304 302 327 298 275 254 277 264 273 319 332 322 330 333 339
295 296 294 295 299 303 308 309 308 302 265 249 246 239 253 253 268 273 268 269 264 260 264 316 329 223 298 4 340 4 264 328 288 280 291 284 304 280 256 258 282 31 340 359 314 308 328
292 291 288 289 294 297 302 304 303 303 291 259 252 261 252 258 263 273 278 275 264 260 270 262 242 315 291 280 228 285 260 247 273 287 196 260 230 293 264 270 313 297 277 297 290 290 317